User: anonymous   Login
Location: Beuvrequen
(50.8014°N, 1.6652°E)
Time: 10:38:59
(UTC+00:00)
Language:

Cosmos 1844 - Orbit

View from above orbital plane
View from above orbital plane
View from above satellite
View from above satellite

Ground track
Ground track

The orbit data is extracted from the following two-line orbital elements,

1 17973U 87041A   22017.90472750 -.00000089  00000-0 -21374-4 0  9993
2 17973  70.9011 341.7059 0028920 135.0217 225.3255 14.14142248789836
Epoch (UTC): 17 January 2022 21:42:48
Eccentricity: 0.0028920
inclination: 70.9011°
perigee height: 824 km
apogee height: 866 km
right ascension of ascending node: 341.7059°
argument of perigee: 135.0217°
revolutions per day: 14.14142248
mean anomaly at epoch: 225.3255°
orbit number at epoch: 78983

The dashed part of the orbit path shows where the satellite is in the earth's shadow,  

DLR